Atlantic City, NJ

8:14 PM EDT on April 24, 2017 (GMT -0400)
Atlantic City International

Weather History for KACY - January, 2014

Change the Weather History Date:

Tuesday, January 21, 2014

  Actual Average Record
Temperature  
Mean Temperature 23 °F 33 °F  
Max Temperature 32 °F 41 °F 62 °F (1974)
Min Temperature 13 °F 24 °F -9 °F (1985)
Degree Days  
Heating Degree Days 42 32  
Month to date heating degree days 696 670  
Since 1 July heating degree days 2496 2439  
Cooling Degree Days 0 0  
Month to date cooling degree days 0 0  
Year to date cooling degree days 0 0  
Moisture  
Dew Point 18 °F    
Average Humidity 76    
Maximum Humidity 92    
Minimum Humidity 59    
Precipitation  
Precipitation 0.18 in 0.10 in 1.68 in (1881)
Month to date precipitation 2.74 2.21  
Year to date precipitation 2.74 2.21  
Snow  
Snow 2.20 in 0.20 in 2.20 in (2014)
Month to date snowfall 8.7 2.7  
Since 1 July snowfall 12.0 6.6  
Snow Depth 0.00 in    
Sea Level Pressure  
Sea Level Pressure 29.81 in    
Wind  
Wind Speed 14 mph (NNE)    
Max Wind Speed 28 mph    
Max Gust Speed 39 mph    
Visibility 4 miles    
Events Snow    
T = Trace of Precipitation, MM = Missing Value Source: NWS Daily Summary

Daily Weather History Graph

Daily Weather History Graph

Search for Another Location

Airport or City:

Trip Planner

Search our weather history database for the weather conditions in past years. The results will help you decide how hot, cold, wet, or windy it might be!

Date:

Astronomy

Jan. 21, 2014 Rise Set
Actual Time 7:13 AM EST 5:05 PM EST
Civil Twilight 6:44 AM EST 5:34 PM EST
Nautical Twilight 6:12 AM EST 6:07 PM EST
Astronomical Twilight 5:40 AM EST 6:39 PM EST
Moon 10:34 PM EST (1/21) 9:44 AM EST (1/21)
Length of Visible Light 10h 49m
Length of Day
9h 51m
Waning Gibbous, 75% of the Moon is Illuminated
Jan 21
Waning Gibbous
Jan 24
Last Quarter
Jan 30
New
Feb 6
First Quarter
Feb 14
Full

Hourly Weather History & Observations

Time (EST) Temp. Windchill Dew Point Humidity Pressure Visibility Wind Dir Wind Speed Gust Speed Precip Events Conditions
12:54 AM 30.9 °F 27.5 °F 25.0 °F 79% 29.89 in 10.0 mi NNW 3.5 mph - N/A   Clear
1:54 AM 28.9 °F - 21.9 °F 75% 29.90 in 10.0 mi Calm Calm - N/A   Clear
2:54 AM 28.9 °F 23.9 °F 23.0 °F 78% 29.91 in 10.0 mi NNE 4.6 mph - N/A   Clear
3:54 AM 27.0 °F 19.5 °F 23.0 °F 85% 29.91 in 10.0 mi NNE 6.9 mph - N/A   Clear
4:54 AM 28.9 °F 19.8 °F 23.0 °F 78% 29.91 in 10.0 mi NNE 10.4 mph - N/A   Partly Cloudy
5:54 AM 28.0 °F 17.5 °F 19.9 °F 72% 29.90 in 10.0 mi NNE 12.7 mph 20.7 mph N/A   Scattered Clouds
6:54 AM 27.0 °F 16.1 °F 18.0 °F 69% 29.92 in 10.0 mi NE 12.7 mph - N/A   Clear
7:54 AM 28.0 °F 18.1 °F 18.0 °F 66% 29.92 in 10.0 mi NE 11.5 mph - N/A   Clear
8:54 AM 28.9 °F 18.6 °F 18.0 °F 64% 29.91 in 10.0 mi NE 12.7 mph - N/A   Mostly Cloudy
9:54 AM 30.9 °F 19.8 °F 19.9 °F 64% 29.88 in 10.0 mi NE 16.1 mph 27.6 mph N/A   Overcast
10:47 AM 32.0 °F 23.6 °F 21.0 °F 64% 29.87 in 10.0 mi NNE 10.4 mph - N/A   Overcast
10:54 AM 32.0 °F 23.0 °F 19.9 °F 61% 29.87 in 10.0 mi NNE 11.5 mph - N/A   Overcast
11:54 AM 30.9 °F 20.2 °F 24.1 °F 76% 29.81 in 3.0 mi NNE 15.0 mph - 0.00 in Snow Light Snow
12:04 PM 30.0 °F 17.9 °F 24.1 °F 79% 29.80 in 2.0 mi NNE 18.4 mph 24.2 mph 0.00 in Snow Light Snow
12:45 PM 28.0 °F 16.1 °F 24.1 °F 85% 29.77 in 1.5 mi NNE 16.1 mph 27.6 mph 0.01 in Snow Light Snow
12:54 PM 27.0 °F 14.3 °F 23.0 °F 85% 29.77 in 1.8 mi NNE 17.3 mph 26.5 mph 0.02 in Snow Light Snow
1:12 PM 27.0 °F 13.9 °F 24.1 °F 89% 29.75 in 1.8 mi NE 18.4 mph 26.5 mph 0.00 in Snow Light Snow
1:25 PM 27.0 °F 14.7 °F 24.1 °F 89% 29.76 in 2.0 mi NNE 16.1 mph 25.3 mph 0.00 in Snow Light Snow
1:34 PM 27.0 °F 14.3 °F 23.0 °F 85% 29.74 in 1.5 mi NE 17.3 mph 32.2 mph 0.00 in Snow Light Snow
1:54 PM 26.1 °F 11.0 °F 21.9 °F 84% 29.75 in 1.8 mi NNE 24.2 mph 31.1 mph 0.01 in Snow Light Snow
2:05 PM 26.1 °F 10.1 °F 21.0 °F 81% 29.75 in 2.5 mi NNE 27.6 mph 39.1 mph 0.00 in Snow Light Snow
2:12 PM 25.0 °F 10.2 °F 21.0 °F 85% 29.74 in 3.0 mi NE 21.9 mph 32.2 mph 0.00 in Snow Light Snow
2:31 PM 25.0 °F 10.9 °F 19.9 °F 81% 29.75 in 2.5 mi NE 19.6 mph 33.4 mph 0.00 in Snow Light Snow
2:38 PM 24.1 °F 9.4 °F 19.9 °F 84% 29.75 in 4.0 mi NNE 20.7 mph 36.8 mph 0.00 in Snow Light Snow
2:54 PM 24.1 °F 8.3 °F 19.0 °F 81% 29.74 in 5.0 mi NNE 24.2 mph 38.0 mph 0.00 in Snow Light Snow
3:04 PM 24.1 °F 7.7 °F 18.0 °F 77% 29.74 in 9.0 mi NNE 26.5 mph 34.5 mph 0.00 in   Overcast
3:17 PM 23.0 °F 7.6 °F 18.0 °F 81% 29.74 in 10.0 mi NE 21.9 mph 29.9 mph 0.00 in   Overcast
3:54 PM 21.9 °F 6.2 °F 17.1 °F 82% 29.75 in 6.0 mi NNE 21.9 mph 31.1 mph 0.00 in Snow Light Snow
4:50 PM 19.4 °F 2.8 °F 15.8 °F 86% 29.76 in 1.5 mi NNE 21.9 mph 29.9 mph 0.00 in Snow Light Snow
4:54 PM 19.9 °F 3.2 °F 15.1 °F 81% 29.76 in 1.5 mi NNE 23.0 mph 29.9 mph 0.00 in Snow Light Snow
4:56 PM 19.9 °F 5.7 °F 15.1 °F 81% 29.76 in 1.2 mi North 16.1 mph 29.9 mph 0.00 in Snow Light Snow
5:10 PM 19.0 °F 2.0 °F 15.1 °F 85% 29.77 in 0.8 mi North 23.0 mph 29.9 mph 0.01 in Snow Light Snow
5:27 PM 19.0 °F 3.6 °F 15.1 °F 85% 29.77 in 0.8 mi North 18.4 mph 28.8 mph 0.02 in Snow Light Snow
5:54 PM 18.0 °F 3.1 °F 15.1 °F 88% 29.80 in 0.8 mi North 16.1 mph 28.8 mph 0.04 in Snow Light Snow
6:35 PM 18.0 °F 2.2 °F 15.1 °F 88% 29.82 in 0.8 mi North 18.4 mph 25.3 mph 0.02 in Snow Light Snow
6:54 PM 17.1 °F 1.5 °F 14.0 °F 88% 29.82 in 0.8 mi North 17.3 mph 26.5 mph 0.04 in Snow Light Snow
7:23 PM 16.0 °F -0.4 °F 12.9 °F 88% 29.81 in 0.8 mi North 18.4 mph 28.8 mph 0.01 in Snow Light Snow
7:44 PM 16.0 °F -2.1 °F 12.9 °F 88% 29.81 in 0.8 mi North 23.0 mph 29.9 mph 0.01 in Snow Light Snow
7:54 PM 16.0 °F -0.4 °F 12.0 °F 84% 29.81 in 1.0 mi North 18.4 mph 29.9 mph 0.01 in Snow Light Snow
8:03 PM 16.0 °F -0.4 °F 12.0 °F 84% 29.80 in 1.0 mi North 18.4 mph 27.6 mph 0.00 in Snow Light Snow
8:35 PM 16.0 °F 0.6 °F 12.0 °F 84% 29.81 in 1.0 mi North 16.1 mph - 0.01 in Snow Light Snow
8:54 PM 15.1 °F -0.1 °F 12.0 °F 88% 29.82 in 0.8 mi North 15.0 mph 25.3 mph 0.02 in Snow Light Snow
9:02 PM 15.1 °F -0.6 °F 12.0 °F 88% 29.82 in 0.8 mi North 16.1 mph - 0.00 in Snow Light Snow
9:23 PM 15.1 °F -1.6 °F 12.0 °F 88% 29.81 in 1.0 mi North 18.4 mph 26.5 mph 0.01 in Snow Light Snow
9:31 PM 16.0 °F -0.4 °F 12.0 °F 84% 29.81 in 1.0 mi North 18.4 mph - 0.01 in Snow Light Snow
9:54 PM 15.1 °F 1.1 °F 12.0 °F 88% 29.82 in 1.0 mi North 12.7 mph 21.9 mph 0.02 in Snow Light Snow
10:54 PM 14.0 °F -3.0 °F 10.0 °F 84% 29.77 in 1.0 mi North 18.4 mph - 0.01 in Snow Light Snow
11:01 PM 14.0 °F -4.3 °F 10.0 °F 84% 29.76 in 1.8 mi North 21.9 mph 29.9 mph 0.00 in Snow Light Snow
11:31 PM 12.9 °F -5.7 °F 9.0 °F 84% 29.76 in 1.2 mi North 21.9 mph 31.1 mph 0.00 in Snow Light Snow
11:54 PM 12.9 °F -2.8 °F 9.0 °F 84% 29.78 in 1.2 mi North 15.0 mph - 0.00 in Snow Light Snow